Regional Weather Roundup
Issued by NWS

Home | Current Version | Previous Version | Graphics & Text | Print | Product List | Glossary On
Versions: 1 2 3 4 5 6 7 8 9 10 11 12 13 14 15 16 17 18 19 20 21 22 23 24 25 26 27 28 29 30 31 32 33 34 35 36 37 38 39 40 41 42 43 44 45 46 47 48 49 50
000
ASUS43 KLOT 201303
RWRIL

ILLINOIS REGIONAL WEATHER ROUNDUP
NATIONAL WEATHER SERVICE CHICAGO/ROMEOVILLE IL
700 AM CST TUE FEB 20 2018

NOTE: "FAIR" INDICATES FEW OR NO CLOUDS BELOW 12,000 FEET WITH NO
SIGNIFICANT WEATHER AND/OR OBSTRUCTIONS TO VISIBILITY.

* THESE STATIONS ARE NOT UNDER NWS QUALITY CONTROL. THEY ALSO MAY NOT
  REPORT WEATHER SUCH AS PRECIPITATION OR FOG.

ILZ001-002-007-009-015-016-024-201400-
NORTHWEST ILLINOIS

CITY           SKY/WX    TMP DP  RH WIND       PRES   REMARKS
MOLINE         CLOUDY    38  36  92 E6        29.81S WCI  33
STERLING*        N/A    N/A N/A N/A MISG        N/A
SAVANNA*       LGT RAIN  37  36  99 CALM      29.79F
$$

ILZ003-004-008-010-011-017-018-201400-
NORTH CENTRAL ILLINOIS

CITY           SKY/WX    TMP DP  RH WIND       PRES   REMARKS
ROCKFORD       LGT RAIN  40  39  97 NW7       29.86R FOG
FREEPORT*      LGT RAIN  36  36 100 NE3       29.82F
ROCHELLE*      FOG       44  44 100 CALM      29.81F VSB 1/2
DE KALB*       FOG       48  48  99 S12       29.83R VSB 1/4
PERU*          CLOUDY    54  53  98 S12       29.83R FOG
$$

ILZ005-006-012>014-019>023-201400-
NORTHEAST ILLINOIS

CITY           SKY/WX    TMP DP  RH WIND       PRES   REMARKS
CHICAGO-OHARE  RAIN      58  57  97 S9        29.83R FOG
CHICAGO-MIDWAY LGT RAIN  60  59  96 SW14      29.86R FOG
AURORA         RAIN      56  55  97 SW8       29.84S FOG
LANSING*       CLOUDY    60  60  99 SW21G33   29.86R
JOLIET*        LGT RAIN  59  59 100 SW7       29.86R
WAUKEGAN       CLOUDY    57  57 100 SW12      29.81R
DUPAGE AIRPORT CLOUDY    57  57 100 S9        29.83R FOG
KANKAKEE*      RAIN      60  59  97 SW20G28   29.89R
WHEELING       LGT RAIN  58  58 100 S10       29.84R
MORRIS*        LGT RAIN  58  57  97 SW10      29.84S
ROMEOVILLE*    RAIN      57  57 100 SW12      29.85S
NORTHERLY ISL    N/A     58  56  93 S7          N/A
$$

LMZ740>746-201400-
SOUTHERN LAKE MICHIGAN

STATION/POSITION SKY/WX   TEMP    WIND        PRES    VSBY  WAVE
                          AIR SEA DIR/SP/G                  HT/PER
                          (F)     (DEG/KT/KT) (MB)    (MI)  (FT/S)
HARRISON CRIB              59     230/  9/ 11   N/A
BURNHAM HARBOR             58     220/  5/ 14   N/A
CALUMET HARBOR             60     220/ 11/ 21 1010.0R
BURNS HARBOR               60     200/ 22     1010.8
MICHIGAN CITY              60     190/ 22/ 28   N/A
$$

ILZ025>027-034>036-040-047-049-050-058-095>099-201400-
WEST-CENTRAL ILLINOIS

CITY           SKY/WX    TMP DP  RH WIND       PRES   REMARKS
QUINCY         CLOUDY    61  57  87 S13       29.80R
GALESBURG*     FOG       44  44 100 CALM      29.82R VSB 1/2
MACOMB*        FOG       50  50 100 S7        29.82S VSB 1/4
JACKSONVILLE*  MOCLDY    62  58  87 S12       29.85R
PITTSFIELD*    CLOUDY    63  60  89 S8        29.84R
$$

ILZ028>032-037-038-041>044-048-051>054-059>061-201400-
CENTRAL ILLINOIS

CITY           SKY/WX    TMP DP  RH WIND       PRES   REMARKS
PONTIAC        CLOUDY    62  61  97 S21G31    29.87R
BLOOMINGTON    HVY RAIN  60  58  92 S24G31    29.87S
DECATUR        LGT RAIN  64  58  80 S18       29.90R
PEORIA         CLOUDY    60  58  92 S12       29.84R
LACON*         CLOUDY    59  59 100 S13       29.82S
LINCOLN*       CLOUDY    62  61  96 S13       29.87S
SPRINGFIELD    MOCLDY    63  32  31 S15       29.87R
TAYLORVILLE    LGT RAIN  64  58  81 S21G26    29.90R
$$

ILZ033-039-045-046-055>057-062-063-201400-
EAST-CENTRAL ILLINOIS

CITY           SKY/WX    TMP DP  RH WIND       PRES   REMARKS
CHAMPAIGN      TSTM      61  59  93 S15       29.91R FOG
DANVILLE*      MOCLDY    63  59  87 S22G33    29.89S
RANTOUL*       LGT RAIN  64  61  92 SW12G20   29.92R
MATTOON        CLOUDY    64  59  83 S18G26    29.93R
PARIS*         CLOUDY    64  60  88 S23G32    29.96S
$$

ILZ079-100>102-201400-
SOUTHWEST ILLINOIS

CITY           SKY/WX    TMP DP  RH WIND       PRES   REMARKS
ALTON          CLOUDY    66  59  77 S16       29.91R
BELLEVILLE     RAIN      66  59  79 SW20G25   29.92R
CAHOKIA*       MOCLDY    68  57  68 S18G32    29.91R
SPARTA*        CLOUDY    65  63  91 S14G23    29.99R
$$

ILZ064>066-069>071-074>076-080>082-084>086-088>090-092>094-201400-
SOUTH-CENTRAL ILLINOIS

CITY           SKY/WX    TMP DP  RH WIND       PRES   REMARKS
CARBONDALE     MOCLDY    67  61  81 S29G39    30.01R
CAIRO*         MOCLDY    65  60  81 S14       30.06R
EFFINGHAM*     CLOUDY    67  61  82 S12G24    29.98R
MARION         CLOUDY    66  64  94 S17G23    30.04R
MT. VERNON     CLOUDY    66  61  84 S21G28    29.99R
CENTRALIA*     CLOUDY    67  62  83 S21G31    29.97R
SALEM*         CLOUDY    68  60  75 S23G31    29.96S
METROPOLIS*    CLOUDY    67  59  75 S9        30.08R
$$

ILZ067-068-072-073-078-083-087-091-201400-
SOUTHEAST ILLINOIS

CITY           SKY/WX    TMP DP  RH WIND       PRES   REMARKS
LAWRENCEVILLE  FAIR      66  59  78 S24G30    30.02R
FLORA*         CLOUDY    67  61  79 S20G25    29.99R
FAIRFIELD*     CLOUDY    66  61  84 S12G17    30.01R
HARRISBURG*    MOCLDY    68  61  78 S16G26    30.05R
ROBINSON*      FAIR      64  59  84 S17G25    30.01R
CARMI*         MOCLDY    65  60  83 S16       30.04R
$$

ABBREVIATIONS USED IN REMARKS
   TC - TEMPERATURE IN CELSIUS
  WCI - WIND CHILL INDEX
   HX - HEAT INDEX
  VSB - VISIBILITY
$$




USA.gov is the U.S. government's official web portal to all federal, state and local government web resources and services.